STARLINK-5075 (53990 NORAD) Tracking and Keplerian Element Data

This shows tracking and keplerian element data for the satellite.

Feedback or suggestion? Click here.




ElementValue
Catalog53990
NameSTARLINK-5075
Epoch Orbit760
Epoch Day324.91667824
Epoch Year2022
RAAN225.4921
Inclination53.2168
Eccentricity0.0001357
Argument of Perigee65.9293
Mean Anonmoly198.0206
Mean Motion15.49882566
Decay Rate-0.0003198
L11 53990U 22125AC 22324.91667824 -.00031980 00000+0 -55784-3 0 9998
L22 53990 53.2168 225.4921 0001357 65.9293 198.0206 15.49882566 7601



Live tracking and technical data element details for STARLINK-5075 (NORAD 53990). STARLINK-5075 can be tracked NOW for your location showing map with azimuth and elevation plus other details from your city location.







IsCatalogInMostPopularTable: catalog: 53990, numindb: 3
Update: records affected: 1



GetName: 53990 STARLINK-5075

Hit Count: updated at: Mon, 28 Nov 2022 22:19:00 GMT